Starlink 3045

operational
NORAD ID: 49173 Int'l Des: 2021-082 Owner: SPXS Country: US Constellation: starlink
LEOCIRCULAR

Über Starlink 3045

Beschreibung wird geladen...

Live-Position

3D-Globus wird geladen...

Nächste Überflüge

Höhenverlauf

Altitude vs Time

uPlot chart will show altitude changes over time

Zweizeiliger Elementsatz

1 49173U 21082AV 26061.07806354 .00000952 00000-0 87586-4 0 9999
2 49173 69.9985 293.6376 0002155 268.3360 91.7552 14.98326914245332
Epoch: 2. März 2026 • Age: 45 hours

Aktueller Status

Höhe 585.5 km
Geschwindigkeit 7.57 km/s
Subsatellitenpunkt -39.52°S, 17.09°E
Startdatum 14. Sept. 2021
Alter 4.4 years
Typ internet

Technische Details

Klassifizierung Payload
Masse 297.00 kg
Trockenmasse 275.00 kg
Gesamtmasse 297.00 kg
Länge 0.20 m
Durchmesser 2.80 m
Spannweite 9.00 m
Form Box + pan
Hersteller SPXS
Bus-Typ Starlink
Phasenstatus In Orbit
Besitzer/Staat SPXS/US

Große Konstellationen

Loading constellations...